TimeMDT,TemperatureF,Dew PointF,Humidity,Sea Level PressureIn,VisibilityMPH,Wind Direction,Wind SpeedMPH,Gust SpeedMPH,PrecipitationIn,Events,Conditions,WindDirDegrees,DateUTC
12:15 AM,44.6,26.6,49,30.45,10.0,SSE,3.5,-,N/A,,Partly Cloudy,160,2013-05-12 06:15:00
12:35 AM,42.8,26.6,53,30.45,10.0,East,3.5,-,N/A,,Clear,90,2013-05-12 06:35:00
12:55 AM,42.8,26.6,53,30.45,10.0,Calm,Calm,-,N/A,,Partly Cloudy,0,2013-05-12 06:55:00
1:15 AM,42.8,26.6,53,30.45,10.0,Calm,Calm,-,N/A,,Mostly Cloudy,0,2013-05-12 07:15:00
1:35 AM,42.8,26.6,53,30.45,10.0,SSE,5.8,-,N/A,,Scattered Clouds,160,2013-05-12 07:35:00
1:55 AM,39.2,24.8,56,30.44,10.0,SE,5.8,-,N/A,,Clear,130,2013-05-12 07:55:00
2:15 AM,37.4,26.6,65,30.44,10.0,SE,6.9,-,N/A,,Clear,130,2013-05-12 08:15:00
2:35 AM,37.4,26.6,65,30.44,10.0,SE,5.8,-,N/A,,Clear,130,2013-05-12 08:35:00
2:55 AM,39.2,26.6,61,30.44,10.0,SE,6.9,-,N/A,,Mostly Cloudy,140,2013-05-12 08:55:00
3:35 AM,37.4,26.6,65,30.44,10.0,NE,3.5,-,N/A,,Clear,40,2013-05-12 09:35:00
3:55 AM,35.6,24.8,65,30.44,10.0,NNE,5.8,-,N/A,,Clear,30,2013-05-12 09:55:00
4:15 AM,35.6,24.8,65,30.45,10.0,Calm,Calm,-,N/A,,Scattered Clouds,0,2013-05-12 10:15:00
4:35 AM,37.4,26.6,65,30.45,10.0,Calm,Calm,-,N/A,,Mostly Cloudy,0,2013-05-12 10:35:00
4:55 AM,39.2,26.6,61,30.45,10.0,North,3.5,-,N/A,,Scattered Clouds,10,2013-05-12 10:55:00
5:15 AM,35.6,23.0,60,30.45,10.0,Calm,Calm,-,N/A,,Clear,0,2013-05-12 11:15:00
5:35 AM,35.6,24.8,65,30.45,10.0,Calm,Calm,-,N/A,,Clear,0,2013-05-12 11:35:00
5:55 AM,33.8,21.2,60,30.45,10.0,Calm,Calm,-,N/A,,Clear,0,2013-05-12 11:55:00
6:15 AM,33.8,24.8,70,30.45,10.0,Calm,Calm,-,N/A,,Clear,0,2013-05-12 12:15:00
6:35 AM,37.4,26.6,65,30.45,10.0,Calm,Calm,-,N/A,,Clear,0,2013-05-12 12:35:00
6:55 AM,39.2,28.4,65,30.46,10.0,Calm,Calm,-,N/A,,Clear,0,2013-05-12 12:55:00
7:15 AM,41.0,26.6,57,30.46,10.0,NNW,3.5,-,N/A,,Clear,330,2013-05-12 13:15:00
7:35 AM,42.8,26.6,53,30.46,10.0,NNW,3.5,-,N/A,,Clear,330,2013-05-12 13:35:00
7:55 AM,44.6,28.4,53,30.46,10.0,Calm,Calm,-,N/A,,Clear,0,2013-05-12 13:55:00
8:15 AM,48.2,30.2,50,30.46,10.0,NNW,3.5,-,N/A,,Clear,340,2013-05-12 14:15:00
8:35 AM,50.0,30.2,47,30.47,10.0,Calm,Calm,-,N/A,,Clear,0,2013-05-12 14:35:00
8:55 AM,51.8,32.0,47,30.46,10.0,Calm,Calm,-,N/A,,Clear,0,2013-05-12 14:55:00
9:15 AM,53.6,32.0,44,30.46,10.0,WSW,4.6,-,N/A,,Clear,250,2013-05-12 15:15:00
9:35 AM,55.4,33.8,44,30.45,10.0,SW,8.1,-,N/A,,Clear,230,2013-05-12 15:35:00
9:55 AM,55.4,33.8,44,30.44,10.0,Calm,Calm,-,N/A,,Partly Cloudy,0,2013-05-12 15:55:00
10:15 AM,57.2,33.8,41,30.44,10.0,Calm,Calm,-,N/A,,Mostly Cloudy,0,2013-05-12 16:15:00
10:35 AM,60.8,30.2,31,30.43,10.0,NW,5.8,-,N/A,,Mostly Cloudy,310,2013-05-12 16:35:00
10:55 AM,60.8,32.0,34,30.43,10.0,WNW,4.6,-,N/A,,Partly Cloudy,290,2013-05-12 16:55:00
11:15 AM,62.6,30.2,30,30.41,10.0,Calm,Calm,-,N/A,,Clear,0,2013-05-12 17:15:00
11:35 AM,62.6,30.2,30,30.40,10.0,NNW,4.6,-,N/A,,Clear,330,2013-05-12 17:35:00
11:55 AM,64.4,30.2,28,30.39,10.0,NNW,6.9,-,N/A,,Clear,340,2013-05-12 17:55:00
12:15 PM,66.2,30.2,26,30.38,10.0,NW,9.2,19.6,N/A,,Clear,310,2013-05-12 18:15:00
12:35 PM,68.0,28.4,23,30.36,10.0,North,9.2,18.4,N/A,,Clear,350,2013-05-12 18:35:00
12:55 PM,68.0,28.4,23,30.36,10.0,WNW,5.8,-,N/A,,Scattered Clouds,300,2013-05-12 18:55:00
1:15 PM,68.0,28.4,23,30.34,10.0,NW,10.4,18.4,N/A,,Scattered Clouds,310,2013-05-12 19:15:00
1:35 PM,69.8,26.6,20,30.34,10.0,North,8.1,18.4,N/A,,Partly Cloudy,350,2013-05-12 19:35:00
1:55 PM,71.6,26.6,19,30.33,10.0,SW,6.9,-,N/A,,Scattered Clouds,230,2013-05-12 19:55:00
2:15 PM,71.6,26.6,19,30.33,10.0,NW,6.9,-,N/A,,Scattered Clouds,320,2013-05-12 20:15:00
2:35 PM,69.8,28.4,21,30.32,10.0,SSE,9.2,20.7,N/A,,Mostly Cloudy,150,2013-05-12 20:35:00
2:55 PM,71.6,28.4,20,30.32,10.0,SSE,9.2,-,N/A,,Mostly Cloudy,150,2013-05-12 20:55:00
3:15 PM,66.2,24.8,21,30.31,10.0,SE,11.5,18.4,N/A,,Mostly Cloudy,140,2013-05-12 21:15:00
3:35 PM,66.2,30.2,26,30.32,10.0,ESE,16.1,28.8,N/A,,Overcast,110,2013-05-12 21:35:00
3:55 PM,71.6,30.2,22,30.31,10.0,SE,12.7,20.7,N/A,,Mostly Cloudy,130,2013-05-12 21:55:00
4:15 PM,69.8,26.6,20,30.30,10.0,ESE,9.2,-,N/A,,Clear,120,2013-05-12 22:15:00
4:35 PM,71.6,26.6,19,30.30,10.0,East,5.8,-,N/A,,Scattered Clouds,80,2013-05-12 22:35:00
4:55 PM,71.6,28.4,20,30.29,10.0,South,11.5,19.6,N/A,,Mostly Cloudy,170,2013-05-12 22:55:00
5:15 PM,69.8,26.6,20,30.30,10.0,ESE,13.8,-,N/A,,Mostly Cloudy,120,2013-05-12 23:15:00
5:35 PM,69.8,26.6,20,30.30,10.0,East,12.7,-,N/A,,Scattered Clouds,100,2013-05-12 23:35:00
5:55 PM,68.0,24.8,20,30.29,10.0,ENE,8.1,-,N/A,,Scattered Clouds,60,2013-05-12 23:55:00
6:15 PM,69.8,26.6,20,30.29,10.0,ENE,10.4,16.1,N/A,,Partly Cloudy,60,2013-05-13 00:15:00
6:35 PM,69.8,24.8,18,30.29,10.0,ENE,8.1,-,N/A,,Clear,60,2013-05-13 00:35:00
6:55 PM,69.8,26.6,20,30.29,10.0,SSE,11.5,-,N/A,,Partly Cloudy,150,2013-05-13 00:55:00
7:15 PM,68.0,28.4,23,30.29,10.0,SE,11.5,-,N/A,,Scattered Clouds,140,2013-05-13 01:15:00
7:35 PM,66.2,26.6,23,30.30,10.0,SE,8.1,-,N/A,,Partly Cloudy,130,2013-05-13 01:35:00
7:55 PM,64.4,24.8,22,30.30,10.0,ESE,5.8,-,N/A,,Mostly Cloudy,120,2013-05-13 01:55:00
8:15 PM,62.6,26.6,26,30.31,10.0,SE,6.9,-,N/A,,Overcast,130,2013-05-13 02:15:00
8:35 PM,60.8,26.6,27,30.32,10.0,South,6.9,-,N/A,,Overcast,170,2013-05-13 02:35:00
8:55 PM,59.0,26.6,29,30.32,10.0,East,6.9,-,N/A,,Mostly Cloudy,90,2013-05-13 02:55:00
9:15 PM,57.2,28.4,33,30.33,10.0,East,9.2,-,N/A,,Mostly Cloudy,90,2013-05-13 03:15:00
9:35 PM,57.2,28.4,33,30.34,10.0,ESE,8.1,-,N/A,,Mostly Cloudy,120,2013-05-13 03:35:00
9:55 PM,57.2,26.6,31,30.34,10.0,ESE,10.4,-,N/A,,Mostly Cloudy,110,2013-05-13 03:55:00
10:15 PM,55.4,26.6,33,30.35,10.0,East,6.9,-,N/A,,Mostly Cloudy,100,2013-05-13 04:15:00
10:35 PM,53.6,26.6,35,30.36,10.0,SE,3.5,-,N/A,,Mostly Cloudy,140,2013-05-13 04:35:00
10:55 PM,55.4,28.4,36,30.36,10.0,East,5.8,-,N/A,,Overcast,100,2013-05-13 04:55:00
11:15 PM,53.6,26.6,35,30.36,10.0,SE,8.1,-,N/A,,Partly Cloudy,130,2013-05-13 05:15:00
11:35 PM,50.0,23.0,35,30.36,10.0,East,4.6,-,N/A,,Clear,90,2013-05-13 05:35:00
11:55 PM,48.2,23.0,37,30.37,10.0,WNW,6.9,-,N/A,,Clear,290,2013-05-13 05:55:00